GFSNW_850_dewp_333.txt.gz
Dewpoint
-30 -30 -28 -17 -10 -16 -10 -7 -4 -8 -7 -5 -3 -1 -3 -5 -4 -6 -6 -5 -4 -4 -3 -1 -4 -3 -2 -4 -1 0 -3 -4 -0 -2 -4 -4 -2 0 3 6 6 6 7 8
-31 -29 -28 -8 -5 -4 -7 -10 -7 -9 -8 1 -2 -4 -4 -5 -5 -5 -6 -5 -5 -4 -3 -3 -5 -5 -8 -5 -0 2 0 -0 1 -6 -6 -3 -1 -1 3 4 4 7 8 8
-30 -29 -26 -6 -6 -7 -8 -9 -2 -9 -8 -6 -4 -3 -4 -3 -6 -5 -6 -5 -5 -5 -3 -5 -9 -8 -9 -7 -2 1 -1 -0 1 1 -0 -1 3 4 5 6 6 8 7 6
-30 -28 -23 -10 -7 -6 -6 -7 -2 -8 -4 -4 -4 -4 -4 -4 -4 -8 -8 -7 -4 -4 -3 -5 -6 -7 -5 -5 -4 1 0 2 1 1 1 2 4 5 5 6 5 7 6 5
-30 -28 -23 -8 -8 -7 -9 -8 -7 -7 -5 -7 -5 -4 -4 -5 -4 -6 -7 -5 -4 -4 -5 -6 -7 -7 -6 -4 -4 -1 0 2 0 1 3 5 5 5 4 5 5 4 3 4
-29 -27 -23 -15 -8 -10 -10 -9 -11 -12 -6 -6 -5 -4 -5 -5 -5 -5 -6 -7 -5 -4 -4 -5 -5 -5 -6 -6 -4 -1 1 2 1 1 2 4 5 4 4 5 4 4 5 3
-29 -26 -23 -19 -9 -10 -11 -13 -14 -11 -4 -5 -5 -5 -5 -4 -5 -4 -4 -7 -5 -5 -4 -3 -4 -4 -4 -3 -2 -3 2 1 1 2 2 6 5 3 4 4 3 2 2 2
-26 -23 -22 -20 -12 -11 -11 -15 -16 -11 -4 -4 -4 -4 -3 -4 -5 -4 -5 -6 -6 -4 -2 -3 -2 -3 -2 -3 -1 -0 -0 1 2 3 4 6 5 3 4 4 4 2 2 2
-11 -13 -16 -15 -13 -11 -12 -12 -17 -14 -6 -3 -4 -4 -5 -3 -3 -3 -5 -6 -7 -5 -5 -4 -1 -0 -2 -2 -4 -3 -2 -1 1 3 5 5 4 2 2 2 6 2 1 1
-7 -7 -9 -9 -10 -10 -12 -15 -17 -12 -4 -3 -5 -5 -4 -3 -3 -4 -4 -7 -10 -7 -4 -3 -1 -2 -3 -2 -1 -1 -2 -1 2 3 4 4 1 1 2 5 5 2 1 1
-8 -8 -8 -9 -11 -13 -14 -14 -14 -15 -4 -4 -5 -6 -8 -8 -8 -5 -5 -8 -7 -8 -5 -4 -2 -3 -3 -3 -3 -1 -1 0 1 1 2 3 -1 1 4 3 2 1 1 2
-11 -10 -11 -14 -16 -16 -17 -15 -12 -18 -8 -3 -6 -6 -7 -8 -8 -8 -5 -5 -3 -6 -4 -3 -3 -3 -3 -3 -2 -4 -2 0 1 1 0 -1 1 1 2 2 1 2 2 2
-14 -11 -12 -14 -15 -15 -16 -16 -15 -20 -6 -5 -4 -3 -6 -8 -12 -13 -11 -6 -7 -6 -6 -3 -3 -2 -4 -1 -1 -0 -2 1 1 1 -0 1 2 1 0 1 2 2 3 2
-20 -18 -18 -19 -17 -15 -16 -19 -20 -20 -11 -3 -2 -3 -4 -7 -10 -11 -12 -10 -7 -7 -6 -4 -3 -2 -3 -1 -1 0 1 1 2 1 -0 1 1 1 0 1 2 3 3 2
-25 -24 -20 -15 -15 -19 -21 -21 -20 -19 -16 -3 -2 -3 -2 -5 -7 -8 -8 -8 -8 -7 -5 -4 -3 -3 -2 -2 -2 1 0 1 2 2 1 1 1 0 1 2 3 3 2 1
-19 -14 -15 -19 -21 -22 -21 -18 -14 -16 -15 -8 -2 -2 -2 -3 -5 -5 -5 -4 -4 -4 -4 -4 -3 -3 -1 -1 1 0 1 1 1 1 2 2 2 1 2 3 3 2 2 1
-15 -18 -19 -20 -21 -22 -22 -16 -14 -14 -15 -8 -2 -2 -3 -3 -4 -4 -4 -4 -4 -4 -3 -2 -2 -1 -1 -1 2 1 1 2 2 2 2 2 2 3 3 3 1 0 -0 -1
-13 -14 -16 -16 -20 -18 -12 -10 -10 -13 -12 -9 -2 -2 -3 -3 -3 -3 -3 -4 -3 -3 -2 -1 -1 -1 0 2 1 1 2 2 3 4 4 4 3 3 3 1 -1 -1 -1 -3
-14 -18 -15 -13 -13 -9 -7 -9 -9 -9 -9 -4 -4 -2 -2 -3 -1 -2 -2 -3 -1 -2 -1 -1 -2 0 2 1 1 1 2 2 2 3 3 3 3 3 0 -1 -1 -2 -3 -3
-15 -16 -19 -13 -10 -13 -21 -21 -17 -8 -6 -5 -3 -3 -2 -2 -1 -2 -3 -3 -2 -0 -0 -2 -2 1 -1 1 2 2 2 2 3 3 3 3 3 1 0 -1 -1 -2 -3 -3
-21 -18 -11 -13 -18 -22 -18 -11 -8 -6 -4 -5 -4 -3 -3 -4 -4 -3 -4 -2 -3 -1 -0 -2 -2 0 -2 -0 1 2 2 2 2 2 3 4 4 2 1 -0 -2 -2 -3 -3
-17 -14 -16 -23 -22 -16 -7 -5 -4 -4 -3 -4 -4 -4 -5 -4 -4 -4 -3 -3 -3 -0 -2 -2 -1 -1 -2 -1 1 2 2 0 0 -0 -1 1 4 4 2 1 -0 -2 -2 -3
-22 -24 -20 -17 -15 -11 -8 -4 -3 -2 -4 -4 -4 -3 -4 -5 -4 -3 -4 -3 -2 -2 -2 -1 -1 -3 -2 -2 -1 1 2 0 -1 -1 -3 -3 -1 4 4 3 2 0 -1 -2
-15 -15 -9 -7 -6 -6 -7 -5 -4 -4 -4 -5 -4 -3 -3 -3 -3 -3 -3 -3 -3 -1 -5 -3 -2 -3 -6 -4 -2 -0 -1 -0 0 -1 -1 -2 -3 -3 -0 3 3 2 -0 -0
-12 -12 -5 -5 -5 -4 -4 -4 -4 -4 -5 -5 -5 -4 -4 -3 -2 -3 -4 -3 -2 -3 -4 -2 -5 -8 -6 -4 -5 -7 -9 -9 -5 -2 -1 -0 -1 -4 -4 -5 -5 -0 2 0
-6 -5 -4 -4 -4 -4 -4 -4 -3 -4 -7 -7 -6 -4 -3 -3 -3 -3 -5 -4 -2 -2 -3 -4 -9 -7 -7 -7 -7 -9 -9 -10 -11 -11 -6 -1 -0 1 -2 -6 -7 -7 -5 -2
-5 -4 -4 -4 -5 -5 -5 -5 -5 -7 -9 -5 -5 -4 -4 -3 -3 -3 -4 -3 -3 -3 -2 -7 -8 -6 -6 -7 -8 -8 -10 -11 -10 -10 -10 -6 -1 0 0 -2 -6 -6 -7 -7

GFSNW_850_dewp_336.txt.gz
Dewpoint
-31 -30 -28 -25 -23 -4 -6 -7 -2 -7 -8 -2 -1 -1 -4 -6 -7 -7 -7 -6 -5 -4 -3 -4 -7 -4 -3 -3 -1 -2 -2 -2 -3 -1 -4 -5 -0 3 5 8 9 8 8 8
-30 -29 -28 -10 -18 -8 -6 -4 -4 -9 -11 5 -1 -4 -5 -5 -7 -6 -8 -5 -5 -5 -3 -4 -8 -5 -6 -3 -1 -0 -1 -0 -2 -2 -1 0 3 3 5 5 5 9 9 8
-30 -29 -23 -7 -4 -6 -9 -5 2 -5 -4 -4 -4 -4 -5 -5 -6 -7 -6 -6 -6 -5 -7 -8 -10 -7 -6 -4 -1 0 -1 0 2 4 2 2 4 5 5 6 8 7 7 6
-30 -28 -16 -6 -6 -6 -7 -4 -1 -4 -4 -4 -4 -4 -5 -5 -7 -8 -10 -7 -5 -7 -5 -9 -5 -6 -5 -4 -3 -1 -0 2 1 0 1 4 5 6 6 6 6 7 5 4
-30 -27 -14 -7 -6 -7 -9 -1 -4 -6 -4 -4 -4 -4 -4 -6 -7 -8 -10 -7 -6 -8 -8 -7 -6 -4 -4 -3 -4 -2 -1 1 1 2 4 3 5 5 3 3 2 1 1 2
-29 -27 -14 -8 -7 -12 -8 -11 -9 -7 -6 -5 -7 -5 -7 -8 -7 -6 -7 -6 -4 -2 -2 -3 -4 -5 -3 -2 -2 -2 -0 1 2 5 5 4 6 4 5 3 2 1 3 2
-29 -26 -19 -9 -9 -11 -10 -13 -8 -5 -4 -6 -6 -6 -7 -6 -6 -5 -6 -6 -5 -3 -2 -2 -3 -3 -1 -2 -2 -2 -0 1 1 5 5 8 5 3 4 3 2 1 1 1
-28 -25 -21 -13 -7 -10 -13 -16 -14 -5 -5 -7 -7 -6 -6 -6 -6 -6 -5 -4 -3 -3 -1 -2 -1 -2 -2 -5 -5 -4 -2 1 2 5 7 6 5 3 3 4 4 1 1 1
-25 -23 -22 -15 -11 -11 -15 -18 -17 -6 -5 -4 -4 -5 -5 -7 -7 -7 -5 -4 -4 -2 -5 -7 -4 -4 -6 -6 -8 -8 -4 -2 2 5 7 7 4 2 2 2 5 2 1 2
-14 -16 -18 -14 -11 -12 -12 -17 -18 -7 -3 -2 -2 -4 -4 -3 -5 -7 -7 -6 -6 -4 -9 -8 -5 -5 -6 -5 -5 -3 -2 0 3 4 5 4 1 2 2 5 5 2 2 2
-8 -11 -13 -11 -11 -11 -14 -14 -15 -12 -4 -2 -3 -3 -5 -7 -6 -7 -4 -5 -5 -9 -6 -6 -5 -5 -4 -5 -5 -2 1 2 2 3 5 5 0 1 4 3 2 2 2 2
-9 -9 -9 -10 -12 -13 -17 -14 -14 -19 -6 -2 -5 -7 -9 -10 -9 -5 -4 -4 -4 -6 -4 -5 -5 -4 -3 -3 -1 -4 2 2 3 2 2 -0 2 2 2 2 2 3 3 3
-8 -10 -13 -15 -16 -15 -18 -17 -16 -19 -5 -4 -3 -2 -8 -13 -14 -11 -6 -4 -5 -4 -3 -3 -3 -2 -2 -0 -0 2 -0 1 2 3 2 2 3 2 1 1 2 3 3 3
-12 -14 -14 -14 -14 -15 -18 -20 -20 -15 -5 -3 -1 -3 -7 -9 -11 -11 -10 -11 -9 -4 -4 -3 -3 -2 -2 -1 -1 2 1 1 2 2 1 2 1 1 1 2 3 3 3 3
-11 -14 -14 -16 -15 -18 -22 -21 -19 -18 -7 -5 -2 -3 -4 -7 -8 -8 -8 -7 -3 -4 -3 -3 -2 -2 -1 -2 -0 2 0 1 2 3 1 2 2 2 2 3 3 3 3 3
-14 -16 -14 -15 -19 -22 -22 -15 -12 -14 -15 -4 -3 -1 -1 -3 -5 -4 -6 -6 -3 -2 -3 -3 -2 -1 -0 1 3 1 1 1 1 1 2 2 3 3 3 4 4 3 3 3
-13 -13 -17 -20 -21 -21 -20 -15 -14 -14 -17 -4 -3 -4 -3 -4 -3 -2 -2 -4 -2 -2 -1 -1 -1 -1 -0 1 2 1 1 2 3 2 3 4 4 4 4 4 3 2 1 -1
-16 -18 -19 -20 -21 -19 -17 -15 -15 -16 -15 -4 -3 -3 -3 -4 -2 -2 -3 -2 -1 -1 -1 -1 -1 -1 0 3 1 1 2 2 3 3 3 4 4 4 3 2 1 1 1 1
-17 -19 -20 -16 -16 -11 -8 -11 -12 -13 -10 -4 -5 -3 -2 -3 -1 -1 -2 -1 -1 -1 -2 -2 -1 -0 3 1 1 2 2 2 2 3 4 4 4 4 3 2 1 -0 -1 -0
-16 -16 -17 -13 -9 -14 -21 -22 -15 -10 -5 -3 -4 -3 -3 -2 -2 -3 -3 -2 -1 -1 -1 -1 -1 1 -0 1 2 2 2 2 3 3 3 3 4 4 3 1 0 0 -0 -2
-21 -16 -11 -14 -20 -22 -20 -12 -4 -1 -3 -4 -3 -5 -3 -3 -4 -4 -3 -2 -2 -2 0 -3 -2 0 -1 1 2 1 0 1 2 2 3 3 3 3 3 0 -1 -2 -2 -3
-17 -15 -20 -24 -22 -16 -3 -0 -3 -4 -5 -3 -5 -4 -4 -3 -3 -5 -3 -3 -3 -0 -1 -3 -1 -2 -2 0 2 1 -1 -1 -0 1 1 3 3 4 3 1 -0 -2 -2 -3
-22 -24 -22 -16 -14 0 -1 -1 -3 -3 -4 -3 -5 -4 -5 -4 -3 -4 -5 -3 -1 -2 -3 -2 0 -3 -2 -0 1 2 1 -1 -1 -1 -2 0 1 0 2 3 1 0 -1 -2
-17 -15 -3 -1 -1 -9 -9 -7 -5 -3 -4 -5 -6 -3 -4 -4 -3 -3 -4 -3 -3 -4 -2 1 -2 -4 -3 -2 -4 -2 -3 -4 -2 -1 0 -0 0 -0 -4 -3 1 1 -0 -0
-12 -8 -2 -4 -4 -4 -3 -3 -3 -4 -4 -5 -5 -5 -5 -4 -2 -4 -4 -2 -3 -6 -4 -0 -4 -4 -3 -3 -5 -4 -5 -7 -7 -6 -1 -0 0 -1 -1 -6 -7 -6 -3 -0
-6 -3 -3 -3 -4 -2 -3 -3 -3 -4 -5 -5 -7 -6 -5 -4 -5 -5 -3 -5 -4 -4 -5 -4 -4 -3 -3 -6 -7 -8 -10 -12 -9 -7 -9 0 1 0 1 -4 -6 -8 -9 -8
-3 -2 -3 -3 -3 -3 -4 -6 -5 -5 -8 -6 -6 -6 -4 -4 -4 -5 -6 -5 -4 -5 -4 -5 -4 -4 -5 -7 -9 -11 -12 -11 -8 -6 -7 -4 -1 -0 -0 0 -2 -3 -4 -6

GFSNW_850_dewp_339.txt.gz
Dewpoint
-29 -31 -29 -28 -3 -4 -5 1 -2 -9 -7 -2 -2 -0 -4 -8 -9 -9 -7 -6 -6 -4 -5 -6 -7 -4 -3 -4 -3 -3 -4 -2 -2 -2 -2 -2 2 5 6 8 8 8 10 9
-30 -30 -29 -26 -13 -3 0 -3 -4 -7 -2 6 0 -4 -6 -8 -8 -8 -8 -6 -6 -6 -4 -5 -7 -4 -5 -4 -3 -0 -1 0 1 1 -0 1 3 5 5 6 7 7 9 8
-30 -29 -28 -13 -20 -5 -3 -4 4 -4 -4 -4 -3 -5 -7 -6 -8 -8 -7 -7 -7 -6 -8 -9 -7 -5 -5 -4 -3 -2 0 1 3 6 4 3 5 6 4 5 8 7 7 4
-30 -29 -24 -6 -15 -7 -5 -2 -0 -2 -1 -4 -4 -5 -7 -8 -8 -10 -9 -8 -8 -7 -7 -7 -5 -6 -4 -5 -5 -1 1 2 1 3 3 5 5 5 3 5 4 5 3 1
-30 -28 -16 -5 -4 -6 0 -3 -5 -3 -4 -4 -4 -4 -5 -6 -7 -8 -8 -8 -8 -9 -6 -5 -4 -5 -4 -3 -4 -3 -1 2 2 5 3 3 5 3 2 1 -1 -1 -1 1
-29 -27 -10 -5 -5 -7 -1 -4 -5 -6 -5 -4 -6 -5 -7 -8 -7 -6 -7 -5 -4 -2 -2 -3 -3 -3 -3 -4 -4 -2 -1 1 2 6 6 5 5 4 3 2 1 -1 1 -1
-29 -26 -11 -6 -5 -8 -1 -4 -5 -5 -4 -7 -7 -9 -8 -6 -6 -6 -7 -5 -3 -2 -2 -3 -3 -3 -4 -5 -7 -4 -1 1 1 5 6 9 5 2 3 3 2 1 -1 -1
-29 -26 -13 -7 -7 -9 -1 -3 -4 -6 -4 -7 -7 -7 -7 -6 -6 -5 -4 -3 -1 -1 -1 -2 -1 -1 -2 -8 -8 -8 -4 1 6 6 8 5 5 3 3 4 4 1 1 -0
-28 -25 -15 -7 -8 -9 -12 -13 -3 -7 -5 -6 -8 -7 -8 -7 -6 -6 -4 -2 -0 -1 -7 -8 -4 -4 -7 -7 -9 -10 -5 -1 5 7 6 8 3 2 3 3 5 2 1 1
-27 -24 -17 -7 -8 -12 -14 -10 -2 -3 -3 -1 -2 -3 -4 -5 -7 -7 -6 -6 -5 -3 -8 -8 -5 -5 -8 -7 -5 -2 -0 1 6 6 5 5 1 2 2 6 5 2 2 1
-21 -20 -17 -9 -11 -12 -14 -8 -4 -4 -3 -2 -2 -2 -4 -5 -6 -4 -5 -4 -5 -8 -5 -5 -6 -5 -5 -1 -3 -1 2 4 4 5 6 6 1 1 4 3 2 2 2 2
-14 -16 -11 -9 -11 -13 -15 -9 -9 -10 -4 -2 -2 -2 -4 -2 -1 -6 -3 -4 -5 -4 -6 -6 -6 -3 -2 -1 2 -2 3 3 4 3 4 1 3 2 2 2 2 2 3 2
-11 -11 -9 -10 -11 -14 -17 -15 -15 -14 -4 -4 -3 -2 -2 -8 -7 -4 -6 -4 -3 -1 -4 -4 -3 -0 -1 2 1 2 2 1 2 4 3 3 3 3 2 2 3 3 2 2
-8 -9 -10 -12 -13 -14 -17 -10 -4 -7 -6 -3 -2 -2 -2 -2 -3 -6 -7 -4 -2 -2 -3 -3 -2 -1 -1 1 1 2 2 1 2 3 2 2 2 2 3 3 3 3 3 3
-11 -12 -13 -12 -13 -18 -15 -10 -6 -5 -6 -4 -2 -2 -1 -2 -2 -1 -2 -2 -2 -2 -2 -2 -1 -1 0 -0 1 2 1 2 3 3 2 3 3 3 3 3 3 3 3 3
-12 -13 -12 -12 -16 -20 -12 -10 -4 -7 -6 -6 -1 -1 -1 -1 -2 -1 -1 -1 -1 -2 -2 -2 -1 -0 1 2 3 1 1 2 2 2 3 3 4 4 4 4 3 3 3 3
-12 -12 -13 -17 -20 -17 -6 -8 -6 -3 -4 -4 -4 -4 -2 -1 -1 -2 -1 -0 -0 -1 -1 -1 -1 -1 0 2 3 1 2 2 3 4 4 3 4 3 3 2 1 1 1 1
-12 -14 -18 -19 -19 -14 -11 -14 -14 -6 -5 -5 -3 -2 -4 -1 -3 -2 -2 -1 -1 -0 -1 -1 -1 -1 1 3 1 1 2 3 3 4 3 4 3 3 2 1 -1 -0 -0 -0
-16 -18 -19 -13 -6 -5 -11 -15 -17 -8 -3 -5 -6 -2 -2 -1 -2 -3 -2 -2 0 -1 -1 -1 -1 -1 3 1 1 2 2 3 3 3 4 4 4 3 2 1 -1 -2 -2 -2
-17 -15 -14 -14 -11 -14 -19 -13 -7 -0 -4 -4 -5 -5 -3 -4 -3 -3 -3 -2 -1 -1 -3 -1 -1 1 1 2 2 1 2 2 2 3 4 4 4 5 3 3 2 1 0 -1
-17 -14 -5 -14 -20 -6 -5 -9 1 -0 -3 -4 -5 -4 -2 -2 -4 -4 -3 -3 -3 -1 -1 -1 0 1 0 2 0 0 2 1 1 1 3 4 4 4 4 3 3 2 2 2
-13 -12 -21 -18 -6 -9 1 1 -3 -4 -4 -4 -5 -4 -4 -3 -3 -5 -3 -3 -3 1 -2 -2 1 -1 -0 2 0 2 1 1 1 0 0 1 2 3 4 4 3 3 1 -1
-20 -18 -20 -3 -7 3 1 3 -2 -1 -4 -4 -4 -4 -6 -5 -5 -5 -5 -3 -1 -4 -2 -0 1 -3 -1 1 1 1 1 1 1 1 1 -0 -0 0 1 2 3 1 0 -1
-12 -8 -0 0 -0 -8 -7 -6 -4 -5 -4 -5 -6 -6 -6 -5 -5 -4 -4 -4 -4 -4 -0 3 -2 -3 -2 -1 -1 -4 -5 -4 -1 1 1 1 -1 -1 -1 -1 -1 -1 -1 -0
-4 -4 2 -3 -4 -3 -2 -3 -5 -6 -6 -6 -7 -7 -6 -5 -3 -4 -3 -2 -2 -6 -3 0 -4 -4 -3 -4 -4 -6 -6 -6 -6 -4 0 2 2 -1 -2 -2 -3 -6 -7 -6
-2 -3 -3 -4 -3 -2 -4 -4 -5 -5 -7 -9 -9 -7 -6 -5 -5 -4 -2 -4 -4 -4 -4 -4 -5 -5 -5 -5 -6 -7 -7 -7 -6 -6 -3 0 1 1 1 1 -0 -0 -5 -7
-2 -2 -3 -3 -2 -2 -3 -4 -6 -6 -9 -7 -7 -6 -5 -6 -5 -7 -7 -5 -4 -5 -4 -5 -5 -4 -5 -5 -6 -7 -7 -7 -7 -6 -5 -2 -1 -0 -0 -0 -0 -0 0 -0

GFSNW_850_dewp_345.txt.gz
Dewpoint
-0 -17 -27 -30 -15 -3 -1 3 6 -6 -4 6 5 2 -4 -8 -9 -8 -5 -4 -2 -3 -6 -4 -1 -1 -2 -4 -3 -0 -2 3 2 4 2 2 3 4 4 5 6 6 2 3
-2 -20 -29 -30 -10 -4 -3 4 -5 -6 -2 8 2 -5 -5 -7 -7 -7 -6 -5 -4 -4 -4 -3 -1 -1 -4 -6 -2 2 2 3 4 5 4 3 4 4 5 3 4 6 1 3
-4 -23 -29 -29 -10 -5 -1 3 2 -6 -3 0 -1 -2 -4 -6 -8 -7 -7 -6 -6 -6 -6 -5 -2 -2 -4 -5 -4 -3 2 4 5 7 7 4 6 5 5 5 1 2 1 0
-7 -24 -29 -29 -16 -5 -4 1 4 -4 -1 1 -2 -2 -4 -5 -7 -8 -8 -7 -5 -5 -4 -3 -1 -2 -3 -4 -5 -1 2 4 4 4 4 3 4 4 4 4 2 1 1 -0
-13 -26 -30 -28 -22 -7 -5 3 -1 -2 -0 -2 -1 -3 -4 -5 -6 -6 -6 -2 -1 -1 1 1 1 -0 0 -1 -3 -3 2 5 4 4 3 3 4 3 3 3 3 1 1 1
-17 -27 -29 -27 -20 -9 -4 1 -2 -2 -2 -1 -0 -2 -4 -3 -4 -5 -1 -1 -0 -0 -1 -3 -4 -5 -6 -5 -3 -1 3 4 4 6 3 3 4 4 4 3 3 3 3 -0
-21 -27 -28 -26 -13 -8 1 -2 -2 -3 1 -2 -4 -4 -4 -1 -1 1 -2 -2 -1 -3 -3 -3 -4 -7 -9 -9 -8 -7 2 5 6 7 6 5 4 2 3 3 3 2 2 2
-24 -28 -28 -13 -10 -6 -2 -0 -1 -3 -2 -4 -4 -4 -1 -2 -2 -1 -1 -2 -4 -3 -3 0 0 2 -1 -6 -8 -3 2 4 6 7 5 5 4 3 4 4 4 2 1 2
-26 -28 -27 -7 -8 -2 -1 -2 -1 -6 -5 0 -5 -2 -3 -2 -2 -1 -1 -0 -0 0 1 -3 -2 -2 -6 -5 -5 -3 3 3 4 6 6 6 5 2 3 3 5 2 1 2
-27 -28 -23 -5 -4 -2 0 -0 -3 -5 0 -0 -1 -1 -2 -4 -3 -2 -4 -3 -2 -2 -3 -3 -2 -1 -3 -0 0 2 4 5 5 5 5 5 3 3 3 5 3 2 1 1
-28 -28 -16 -5 -6 -1 0 -1 -4 -6 -1 -2 -2 -1 -2 -3 -5 -0 -5 -2 -2 -1 -2 -2 -2 -1 -1 1 1 2 2 4 3 5 5 5 3 2 4 3 2 2 0 1
-28 -27 -13 -4 -5 1 -1 -2 -3 -5 -3 -1 -3 -3 -3 -4 -5 -4 -2 -2 -4 -4 -2 -1 0 1 1 1 3 1 3 2 3 5 5 3 2 2 2 3 3 2 1 1
-28 -23 -9 -6 -1 1 -2 -4 -5 -9 -4 -3 -3 -2 -3 -3 -4 -4 -1 -2 -2 -3 -3 -2 0 2 1 2 2 3 2 2 3 4 3 3 3 3 3 2 2 2 2 2
-26 -17 -5 -5 -1 -1 -3 -7 -7 -10 -3 -0 -1 -2 -2 -2 -2 -3 -2 -1 -2 -2 -2 -0 0 1 -0 2 2 2 2 2 3 4 3 3 2 2 2 3 1 3 3 2
-12 -9 -5 -5 -5 -5 -5 -4 -7 -4 -7 -0 -1 -0 -0 -0 -0 -0 -0 -1 -1 -0 -0 1 1 1 1 1 2 2 2 2 3 4 3 3 3 3 3 3 2 1 2 1
-8 -7 -9 -6 -3 -2 -5 -7 -5 -6 -6 -3 1 -0 0 -0 -1 -1 -0 -0 -0 -1 -1 -0 0 1 1 2 3 2 2 3 3 3 4 4 4 3 2 0 1 1 -0 -1
-6 -7 -5 -1 -3 -6 -7 -9 -5 -3 -8 -3 -0 -1 -0 -1 0 1 -0 -1 -1 -1 0 1 1 1 1 2 3 2 3 3 3 4 4 4 4 3 -0 -1 -1 -2 -2 -3
-8 -3 -1 -3 -4 -5 -5 -6 -5 -4 -5 -4 -0 0 -1 -1 0 0 -0 -0 -0 -1 -1 -0 1 2 2 3 2 2 3 3 3 3 3 4 4 3 2 1 -1 -0 -1 -1
-3 -5 -5 -5 -4 -4 -3 -3 -4 -5 -6 -4 -2 2 1 -1 -1 0 -0 -0 1 -0 0 0 -0 1 2 2 2 2 2 2 4 3 3 3 4 3 3 2 1 1 1 1
-6 -9 -10 -11 -4 -4 -4 -6 -11 -6 -4 -4 -1 -1 1 -1 -1 -0 -1 -0 1 1 0 -1 1 1 2 2 1 2 2 1 2 3 3 4 4 4 4 3 3 2 2 2
-6 -11 -7 -4 -5 -7 -14 -2 -0 -2 -2 -4 -1 -1 -1 -2 -0 0 -2 0 -0 1 0 1 1 0 2 1 1 2 1 1 1 1 2 2 3 3 3 3 1 0 0 1
-13 -11 -7 -5 -6 -9 -2 0 0 -1 -1 -2 -1 -1 -3 -4 -5 -2 -3 -1 -0 3 -1 1 1 1 1 1 1 1 1 1 0 -0 -0 -0 0 1 1 1 -1 -1 -0 -0
-13 -15 -10 -6 -5 -4 -5 -0 1 -0 -2 -2 -2 -3 -5 -5 -5 -4 -3 -1 1 -1 -0 1 -0 2 2 1 1 1 1 1 0 -0 -1 -2 -3 -3 -4 -5 -5 -4 -2 -1
-13 -9 -6 -3 -1 -2 -0 0 0 -3 -2 -2 -5 -5 -5 -5 -3 -3 -2 -2 -2 0 1 2 1 2 2 1 0 -1 -0 1 1 1 0 -1 0 0 -2 -6 -5 -5 -5 -3
-2 -3 -1 -1 -1 -2 -2 -3 -3 -2 -3 -5 -5 -5 -5 -2 -1 -2 -2 -2 -1 -1 -0 0 2 0 -1 -1 -3 -4 -5 -4 -2 0 1 1 0 0 0 0 0 -1 -3 -4
-2 -2 -0 -1 -1 0 -1 -2 -2 -4 -6 -7 -7 -4 -3 -3 -1 -2 -1 -1 -1 -1 1 1 0 -0 -2 -5 -6 -6 -6 -5 -4 -0 0 -0 -1 -1 -1 -1 -1 -1 -0 -1
-2 -1 -1 -1 -0 -0 -2 -3 -3 -7 -6 -3 -5 -4 -4 -4 -2 -3 -2 -2 0 -0 -0 -0 -1 -2 -6 -6 -7 -7 -7 -6 -6 -6 -2 -0 -1 -1 -1 -1 -0 0 1 0

GFSNW_850_dewp_348.txt.gz
Dewpoint
4 2 -4 -22 -29 -9 -2 -0 4 -3 -2 4 5 0 -4 -9 -9 -8 -5 -4 -3 -4 -4 -1 -1 -0 -1 -5 -3 0 -0 2 5 5 3 2 3 5 4 1 6 5 0 1
4 2 -5 -24 -29 -10 -3 3 -2 -3 3 5 -1 -6 -6 -6 -6 -5 -6 -5 -4 -4 -4 -1 -0 -2 -5 -5 -2 1 1 2 6 7 4 2 4 4 4 3 0 1 -1 1
4 2 -6 -24 -28 -10 -0 2 -2 -5 -3 3 -2 -4 -5 -6 -9 -7 -7 -6 -6 -7 -5 -2 -2 -2 -4 -5 -4 -2 2 4 3 5 5 4 5 4 4 1 0 1 -1 -0
4 1 -9 -25 -28 -14 -5 -2 3 -6 -1 0 -3 -3 -5 -7 -8 -8 -8 -2 -0 -6 -3 -2 -1 -3 -4 -4 -3 -0 2 5 4 4 3 3 3 3 3 3 0 0 0 -1
4 1 -12 -27 -28 -16 -6 -0 0 -1 -1 -3 -3 -3 -6 -5 -5 -3 -1 0 -0 -0 0 0 -0 -0 -1 -3 -3 -0 2 5 4 6 2 2 3 3 3 4 4 2 2 3
4 1 -11 -26 -26 -14 -6 2 1 -1 -1 -2 -2 -3 -3 -3 -2 -1 -2 -1 -1 -1 -2 -6 -7 -7 -6 -6 -4 -0 3 3 4 7 4 2 4 4 4 3 3 3 6 4
4 0 -17 -28 -26 -12 -4 2 2 -3 -1 -3 -3 -1 -0 0 -0 0 -1 -3 -2 -3 -4 -8 -9 -10 -9 -4 -1 -0 4 4 4 6 6 3 2 3 2 3 3 2 1 1
2 -1 -21 -28 -25 -12 -3 1 3 -4 -2 -1 -1 -1 -0 -1 -1 -1 -0 -1 -3 -3 -2 -0 1 -4 -3 -6 2 3 3 4 6 6 5 5 3 3 3 3 3 2 1 1
2 -4 -25 -28 -20 -11 -4 2 1 -4 -4 -0 -2 -2 -3 -2 -2 -1 -1 -0 -2 -1 1 -4 -4 -3 -5 -3 -3 1 2 3 4 5 4 5 4 3 2 3 3 -0 1 2
1 -11 -28 -28 -11 -10 -2 1 -0 -5 -1 -0 -3 -3 -5 -6 -4 -3 -2 -3 -3 -2 -4 -4 -2 -1 -3 1 2 3 3 4 4 1 4 5 3 3 3 4 1 0 2 2
-2 -20 -28 -21 -8 -3 1 -1 -4 -7 -1 -0 -1 -1 -2 -6 -6 -3 -5 -3 -3 -4 -3 -3 -2 -1 -1 2 3 2 3 3 3 3 3 3 2 3 4 2 1 2 2 2
-11 -26 -28 -9 -3 1 -1 -3 -4 -6 -3 -1 -3 -4 -4 -8 -6 -5 -2 -2 -3 -3 -2 -2 -0 1 0 1 4 2 4 2 3 3 4 3 2 2 2 2 2 1 2 2
-21 -28 -24 -4 2 -0 -2 -4 -5 -6 -4 -3 -3 -3 -3 -4 -3 -3 -3 -2 -2 -2 -3 -1 -0 1 -1 2 3 3 3 2 3 4 3 3 3 2 2 1 2 2 3 2
-26 -27 -12 -2 1 -1 -3 -5 -7 -10 -3 -0 -0 -2 -2 -2 -3 -3 -3 -2 -3 -3 -3 -1 -0 0 1 3 2 2 2 2 3 4 3 3 3 3 3 3 2 3 1 1
-28 -23 -5 1 0 -3 -5 -7 -10 -8 -7 0 -0 0 -0 -1 -1 -2 -2 -2 -3 -3 -1 -0 1 1 1 2 2 2 2 2 3 4 3 3 3 3 3 1 1 -0 -0 -2
-26 -10 -1 1 -1 -4 -5 -5 -4 -5 -3 -2 0 0 -0 -1 -1 -2 -2 -2 -2 -1 -0 1 1 1 1 2 3 2 2 3 3 4 4 4 4 3 2 -0 1 -1 -2 -3
-17 -4 0 -0 -3 -3 -8 -10 -6 -6 -5 -2 -1 -0 1 -1 -1 -1 -1 -1 -1 -0 1 1 1 1 1 2 3 2 3 3 4 4 4 4 3 3 1 -2 -2 -2 -2 -1
-5 -1 -1 -1 -2 -5 -6 -6 -6 -5 -6 -4 -0 -0 -0 0 0 0 -0 -0 -1 -1 -0 1 1 1 2 3 2 3 3 3 3 3 3 4 3 3 2 1 -0 -0 1 1
-1 -2 -1 -2 -4 -4 -3 -3 -4 -6 -7 -2 -1 0 0 -0 -0 0 0 -1 -0 -0 -0 0 0 1 2 3 2 2 2 2 2 3 3 3 3 3 3 1 1 1 2 2
-2 -1 -3 -5 -3 -4 -2 -3 -5 -5 -4 -3 -0 -1 0 -0 0 -0 0 0 -0 -0 -0 -0 0 2 2 2 2 2 1 2 3 2 3 3 3 4 3 1 1 2 2 2
-2 -7 -4 -2 -3 -4 -11 -4 -3 -3 -2 -2 -1 -1 0 -0 -1 -1 -1 -1 -1 0 -0 -0 -1 -0 2 1 2 2 1 1 1 1 2 2 2 2 1 -1 -0 1 1 1
-9 -7 -2 -3 -8 -11 -3 -1 -0 -2 -1 -1 -1 -1 -1 -3 -4 -3 -2 -2 -0 2 0 -1 0 -1 1 1 2 1 1 -0 -0 -1 -1 -0 -1 -2 -4 -2 -1 -0 -0 0
-6 -7 -9 -10 -5 -8 -5 -1 -1 -1 -1 -1 -2 -3 -5 -6 -5 -3 -3 -1 0 -1 -1 0 -2 2 0 1 1 1 1 -0 -1 -2 -2 -4 -7 -6 -6 -5 -4 -3 -1 -3
-15 -9 -6 -6 -4 -5 -3 -1 -2 -2 -1 -3 -4 -4 -5 -5 -4 -3 -2 -1 -1 0 1 -0 0 1 0 -0 1 1 1 0 -0 -1 0 0 1 0 -0 -2 -3 -5 -5 -6
-3 -3 -3 -2 -1 0 -0 -2 -1 -1 -3 -5 -6 -4 -4 -2 -2 -2 -3 -2 -1 -1 -1 -2 2 1 1 1 0 -1 1 1 1 1 0 -0 -0 -1 -1 -1 -0 -1 -3 -3
-2 -2 -0 -0 -0 -0 -1 -1 -2 -4 -6 -9 -7 -3 -3 -3 -1 -3 -3 -1 -1 -2 0 1 1 1 -1 -2 -4 -5 -4 -2 0 -0 -1 -1 -1 -1 -1 -0 0 0 -1 -3
-2 -0 -1 -0 -1 -1 -1 -2 -4 -7 -8 -3 -5 -5 -4 -3 -3 -3 -2 -2 -2 1 1 0 -1 -1 -1 -5 -5 -5 -5 -4 -0 0 -0 -1 -1 -1 -1 0 1 -0 -1 -2